Regional Weather Roundup
Issued by NWS

Home | Current Version | Previous Version | Text Only | Print | Product List | Glossary Off
Versions: 1 2 3 4 5 6 7 8 9 10 11 12 13 14 15 16 17 18 19 20 21 22 23 24 25 26 27 28 29 30 31 32 33 34 35 36 37 38 39 40 41 42 43 44 45 46 47 48 49 50

000
ASUS45 KBOI 210810
RWRID
WEATHER ROUNDUP FOR IDAHO
NATIONAL WEATHER SERVICE BOISE ID
200 AM MDT TUE OCT 21 2014

NOTE: "FAIR" INDICATES FEW OR NO CLOUDS BELOW 12000 FEET
WITH NO SIGNIFICANT WEATHER AND/OR OBSTRUCTIONS TO VISIBILITY

IDZ012-014-210900-
SOUTHWEST IDAHO


CITY           SKY/WX    TMP DP  RH WIND       PRES   REMARKS
BOISE          CLOUDY    55  45  68 N13       29.87R
CALDWELL       CLOUDY    55  41  58 NW8       29.90R
MOUNTAIN HOME  DRIZZLE   57  45  65 NW31G40   29.78R
$$

IDZ016-017-210900-
SOUTHCENTRAL IDAHO


CITY           SKY/WX    TMP DP  RH WIND       PRES   REMARKS
BURLEY         MOCLDY    62  37  39 SE8       29.76F
JEROME         LGT RAIN  63  35  35 E14       29.72F
TWIN FALLS     MOCLDY    65  34  31 S12       29.73F
$$

IDZ019>023-210900-
SOUTHEAST IDAHO


CITY           SKY/WX    TMP DP  RH WIND       PRES   REMARKS
IDAHO FALLS    MOCLDY    60  36  40 SW8       29.84F
POCATELLO      LGT RAIN  68  34  28 S18       29.81F
REXBURG        MOCLDY    45  35  68 CALM      29.86S
$$

IDZ006-010-011-018-031-032-210900-
CENTRAL IDAHO MOUNTAINS


CITY           SKY/WX    TMP DP  RH WIND       PRES   REMARKS
MCCALL         CLOUDY    48  35  60 SW10      29.82R
HAILEY         LGT RAIN  55  43  62 E9        29.83S
STANLEY          N/A     46  38  73 N7        29.85F
SALMON         PTCLDY    54  36  50 N5        29.74S
CHALLIS        MOCLDY    50  41  71 S6        29.80F
$$

IDZ002-004-006-007-026-210900-
NORTHERN IDAHO


CITY           SKY/WX    TMP DP  RH WIND       PRES   REMARKS
LEWISTON       CLOUDY    55  44  66 S6        29.86R
LOWELL           N/A     55  47  74 CALM      29.85R
COEUR D`ALENE  CLOUDY    52  43  71 CALM      29.83F
MULLAN PASS    FOG       41  41 100 VRB7      29.85F VSB 1/4
$$


USA.gov is the U.S. government's official web portal to all federal, state and local government web resources and services.